Location: Gaast
(52.9002°N, 5.8891°E)
Time: 23:50:54
(UTC+00:00)

Cosmos 407 Rocket - Pass Details

Date: 18 November 2025
Orbit: 740 x 780 km, 74.0° (Epoch: 04 December)

Event Time Altitude Azimuth Distance (km) Brightness Sun altitude
Rises 16:24:26 0° 174° (S) 3,204 7.0 -7.1°
Reaches altitude 10° 16:27:00 10° 165° (SSE) 2,277 6.1 -7.5°
Maximum altitude 16:31:33 33° 103° (ESE) 1,257 4.2 -8.1°
Drops below altitude 10° 16:36:06 10° 41° (NE) 2,272 5.4 -8.8°
Enters shadow 16:36:59 - 37° (NE) 2,584 5.7 -8.9°
